,,PA_Meas_PMT16A,,PR_Meas_QMR101_102,,RH_Meas_QMH101,,SR_Meas_QMS101,,TA_Meas_QMH101,,GenWind,,GenWind,
time,status,PA,status,PR,status,RH,status,SR,status,TA,status,DirAvg,status,SpdAvg,
2015-02-23, 07:32:04,VALID,918.514,VALID,0,VALID,95.3003,VALID,65.8614,VALID,19.6833,VALID,128,VALID,0,
2015-02-23, 07:33:04,VALID,918.543,VALID,0,VALID,95.1097,VALID,69.8367,VALID,19.7223,VALID,128,VALID,0,
2015-02-23, 07:34:04,VALID,918.572,VALID,0,VALID,94.9649,VALID,73.4897,VALID,19.8018,VALID,128,VALID,0,
2015-02-23, 07:35:04,VALID,918.583,VALID,0,VALID,94.8582,VALID,76.8204,VALID,19.8198,VALID,128,VALID,0,
2015-02-23, 07:36:04,VALID,918.608,VALID,0,VALID,94.8277,VALID,79.6139,VALID,19.8978,VALID,128,VALID,0,
2015-02-23, 07:37:04,VALID,918.584,VALID,0,VALID,94.7743,VALID,81.8702,VALID,19.9368,VALID,128,VALID,0,
2015-02-23, 07:38:04,VALID,918.584,VALID,0,VALID,94.6066,VALID,84.1264,VALID,19.9758,VALID,133,VALID,0,
2015-02-23, 07:39:04,VALID,918.605,VALID,0,VALID,94.1721,VALID,87.0273,VALID,19.9968,VALID,157,VALID,0,
2015-02-23, 07:40:04,VALID,918.586,VALID,0,VALID,93.6613,VALID,90.7878,VALID,20.0343,VALID,153,VALID,0,
2015-02-23, 07:41:04,VALID,918.594,VALID,0,VALID,93.4707,VALID,95.1929,VALID,20.0928,VALID,160,VALID,0,
2015-02-23, 07:42:04,VALID,918.602,VALID,0,VALID,93.2649,VALID,100.135,VALID,20.1529,VALID,160,VALID,0,
2015-02-23, 07:43:04,VALID,918.645,VALID,0,VALID,93.0133,VALID,104.755,VALID,20.2098,VALID,156,VALID,0,
2015-02-23, 07:44:04,VALID,918.672,VALID,0,VALID,92.533,VALID,109.375,VALID,20.2684,VALID,156,VALID,0,
2015-02-23, 07:45:04,VALID,918.699,VALID,0,VALID,92.4187,VALID,113.78,VALID,20.3464,VALID,156,VALID,0,
2015-02-23, 07:46:04,VALID,918.724,VALID,0,VALID,91.5648,VALID,118.615,VALID,20.3854,VALID,121,VALID,0,
2015-02-23, 07:47:04,VALID,918.735,VALID,0,VALID,91.42,VALID,122.913,VALID,20.4064,VALID,119,VALID,0,
2015-02-23, 07:48:04,VALID,918.724,VALID,0,VALID,92.0451,VALID,126.136,VALID,20.4439,VALID,118,VALID,0,
2015-02-23, 07:49:04,VALID,918.755,VALID,0,VALID,92.6931,VALID,127.748,VALID,20.5219,VALID,117,VALID,0,
2015-02-23, 07:50:04,VALID,918.754,VALID,0,VALID,92.7084,VALID,127.962,VALID,20.6194,VALID,114,VALID,0,
2015-02-23, 07:51:04,VALID,918.762,VALID,0,VALID,91.6563,VALID,128.177,VALID,20.6585,VALID,115,VALID,0,
2015-02-23, 07:52:04,VALID,918.774,VALID,0,VALID,91.2828,VALID,129.144,VALID,20.6585,VALID,120,VALID,0,
2015-02-23, 07:53:04,VALID,918.796,VALID,0,VALID,91.0388,VALID,130.434,VALID,20.678,VALID,124,VALID,0,
2015-02-23, 07:54:04,VALID,918.785,VALID,0,VALID,91.3438,VALID,131.293,VALID,20.756,VALID,124,VALID,0,
2015-02-23, 07:55:04,VALID,918.787,VALID,0,VALID,91.1303,VALID,130.219,VALID,20.8145,VALID,134,VALID,0,
2015-02-23, 07:56:04,VALID,918.798,VALID,0,VALID,89.8801,VALID,126.458,VALID,20.7755,VALID,132,VALID,0,
2015-02-23, 07:57:04,VALID,918.769,VALID,0,VALID,89.3922,VALID,122.268,VALID,20.756,VALID,129,VALID,0,
2015-02-23, 07:58:04,VALID,918.771,VALID,0,VALID,89.5065,VALID,120.549,VALID,20.7365,VALID,138,VALID,0,
2015-02-23, 07:59:04,VALID,918.771,VALID,0,VALID,89.7962,VALID,122.268,VALID,20.756,VALID,142,VALID,0,
2015-02-23, 08:00:04,VALID,918.814,VALID,0,VALID,89.6742,VALID,125.276,VALID,20.756,VALID,132,VALID,0,
2015-02-23, 08:01:04,VALID,918.832,VALID,0,VALID,90.0325,VALID,128.5,VALID,20.756,VALID,125,VALID,0,
2015-02-23, 08:02:04,VALID,918.829,VALID,0,VALID,89.5751,VALID,132.153,VALID,20.7365,VALID,150,VALID,0,
2015-02-23, 08:03:04,VALID,918.814,VALID,0,VALID,89.8115,VALID,136.235,VALID,20.7154,VALID,142,VALID,0,
2015-02-23, 08:04:04,VALID,918.841,VALID,0,VALID,89.4837,VALID,138.277,VALID,20.7154,VALID,153,VALID,0,
2015-02-23, 08:05:04,VALID,918.836,VALID,0,VALID,89.4455,VALID,136.558,VALID,20.6959,VALID,157,VALID,0,
2015-02-23, 08:06:04,VALID,918.888,VALID,0,VALID,89.7124,VALID,131.938,VALID,20.6975,VALID,167,VALID,1.62344,
2015-02-23, 08:07:04,VALID,918.872,VALID,0,VALID,90.4976,VALID,127.748,VALID,20.6374,VALID,158,VALID,0.823438,
2015-02-23, 08:08:04,VALID,918.876,VALID,0,VALID,90.4671,VALID,125.384,VALID,20.6179,VALID,161,VALID,1.22227,
2015-02-23, 08:09:04,VALID,918.899,VALID,0,VALID,91.0312,VALID,124.632,VALID,20.6374,VALID,169,VALID,0.576172,
2015-02-23, 08:10:04,VALID,918.882,VALID,0,VALID,90.6882,VALID,126.351,VALID,20.6569,VALID,150,VALID,0,
2015-02-23, 08:11:04,VALID,918.895,VALID,0,VALID,90.2003,VALID,129.681,VALID,20.6569,VALID,172,VALID,0,
2015-02-23, 08:12:04,VALID,918.883,VALID,0,VALID,90.1545,VALID,134.409,VALID,20.6975,VALID,168,VALID,0,
2015-02-23, 08:13:04,VALID,918.878,VALID,0,VALID,89.8343,VALID,139.673,VALID,20.6569,VALID,168,VALID,0,
2015-02-23, 08:14:04,VALID,918.869,VALID,0,VALID,89.9411,VALID,144.938,VALID,20.6959,VALID,157,VALID,0,
2015-02-23, 08:15:04,VALID,918.906,VALID,0,VALID,90.3451,VALID,148.699,VALID,20.7544,VALID,167,VALID,0,
2015-02-23, 08:16:04,VALID,918.903,VALID,0,VALID,90.246,VALID,146.765,VALID,20.8519,VALID,160,VALID,0,
2015-02-23, 08:17:04,VALID,918.926,VALID,0,VALID,89.255,VALID,138.492,VALID,20.891,VALID,151,VALID,0,
2015-02-23, 08:18:04,VALID,918.934,VALID,0,VALID,88.9653,VALID,138.169,VALID,20.93,VALID,133,VALID,0,
2015-02-23, 08:19:04,VALID,918.956,VALID,0,VALID,88.668,VALID,147.409,VALID,20.9495,VALID,143,VALID,0,
2015-02-23, 08:20:04,VALID,918.969,VALID,0,VALID,88.1801,VALID,163.203,VALID,20.9495,VALID,142,VALID,0,
2015-02-23, 08:21:04,VALID,918.965,VALID,0,VALID,88.1191,VALID,183.939,VALID,20.969,VALID,143,VALID,0,
2015-02-23, 08:22:04,VALID,918.999,VALID,0,VALID,87.5321,VALID,196.188,VALID,20.9885,VALID,129,VALID,0,
2015-02-23, 08:23:04,VALID,919.004,VALID,0,VALID,88.1267,VALID,207.254,VALID,21.047,VALID,129,VALID,0,
2015-02-23, 08:24:04,VALID,918.987,VALID,0,VALID,87.9056,VALID,215.42,VALID,21.086,VALID,130,VALID,0,
2015-02-23, 08:25:04,VALID,918.994,VALID,0,VALID,87.9209,VALID,231.213,VALID,21.1234,VALID,135,VALID,0,
2015-02-23, 08:26:04,VALID,919.013,VALID,0,VALID,87.372,VALID,224.767,VALID,21.2421,VALID,131,VALID,0,
2015-02-23, 08:27:04,VALID,919.025,VALID,0,VALID,87.2805,VALID,213.7,VALID,21.3201,VALID,167,VALID,0,
2015-02-23, 08:28:04,VALID,919.005,VALID,0,VALID,86.5334,VALID,212.089,VALID,21.338,VALID,164,VALID,0,
2015-02-23, 08:29:04,VALID,919.029,VALID,0,VALID,85.9693,VALID,212.841,VALID,21.3185,VALID,160,VALID,0,
2015-02-23, 08:30:04,VALID,919.046,VALID,0,VALID,86.1522,VALID,210.477,VALID,21.338,VALID,185,VALID,0,
2015-02-23, 08:31:04,VALID,919.04,VALID,0,VALID,86.2437,VALID,204.246,VALID,21.3965,VALID,173,VALID,0.000390625,
2015-02-23, 08:32:04,VALID,919.051,VALID,0,VALID,85.1231,VALID,194.039,VALID,21.3786,VALID,160,VALID,0.390234,
2015-02-23, 08:33:04,VALID,919.098,VALID,0,VALID,85.4128,VALID,178.46,VALID,21.3591,VALID,178,VALID,0,
2015-02-23, 08:34:04,VALID,919.142,VALID,0,VALID,86.0684,VALID,158.691,VALID,21.4372,VALID,137,VALID,0,
2015-02-23, 08:35:04,VALID,919.198,VALID,0,VALID,86.846,VALID,143.649,VALID,21.4762,VALID,97,VALID,0,
2015-02-23, 08:36:04,VALID,919.214,VALID,0,VALID,86.4724,VALID,134.409,VALID,21.4372,VALID,118,VALID,0,
2015-02-23, 08:37:04,VALID,919.257,VALID,0,VALID,87.0975,VALID,131.723,VALID,21.3981,VALID,136,VALID,0,
2015-02-23, 08:38:04,VALID,919.276,VALID,0,VALID,87.0594,VALID,137.31,VALID,21.4567,VALID,136,VALID,0,
2015-02-23, 08:39:04,VALID,919.31,VALID,0,VALID,85.7787,VALID,146.442,VALID,21.4567,VALID,136,VALID,0,
2015-02-23, 08:40:04,VALID,919.28,VALID,0,VALID,86.3428,VALID,150.74,VALID,21.4355,VALID,136,VALID,0,
2015-02-23, 08:41:04,VALID,919.276,VALID,0,VALID,86.3581,VALID,149.343,VALID,21.455,VALID,148,VALID,0,
2015-02-23, 08:42:04,VALID,919.294,VALID,0,VALID,85.8549,VALID,143.434,VALID,21.4762,VALID,159,VALID,0,
2015-02-23, 08:43:04,VALID,919.289,VALID,0,VALID,86.48,VALID,136.45,VALID,21.4746,VALID,166,VALID,0,
2015-02-23, 08:44:04,VALID,919.322,VALID,0,VALID,87.1128,VALID,133.979,VALID,21.5331,VALID,166,VALID,0,
2015-02-23, 08:45:04,VALID,919.363,VALID,0,VALID,86.2056,VALID,135.161,VALID,21.5331,VALID,179,VALID,0.00234375,
2015-02-23, 08:46:04,VALID,919.386,VALID,0,VALID,85.9464,VALID,137.525,VALID,21.4957,VALID,175,VALID,0.219531,
2015-02-23, 08:47:04,VALID,919.409,VALID,0,VALID,86.6401,VALID,139.029,VALID,21.5542,VALID,164,VALID,0,
2015-02-23, 08:48:04,VALID,919.441,VALID,0,VALID,86.5639,VALID,138.277,VALID,21.5331,VALID,140,VALID,0.0597656,
2015-02-23, 08:49:04,VALID,919.452,VALID,0,VALID,86.7697,VALID,135.698,VALID,21.5347,VALID,156,VALID,0,
2015-02-23, 08:50:04,VALID,919.484,VALID,0,VALID,87.128,VALID,133.442,VALID,21.5542,VALID,162,VALID,0,
2015-02-23, 08:51:04,VALID,919.477,VALID,0,VALID,86.5334,VALID,132.69,VALID,21.5737,VALID,148,VALID,0.00703125,
2015-02-23, 08:52:04,VALID,919.452,VALID,0,VALID,86.6172,VALID,133.979,VALID,21.5331,VALID,174,VALID,0,
2015-02-23, 08:53:04,VALID,919.438,VALID,0,VALID,86.5791,VALID,136.88,VALID,21.5542,VALID,173,VALID,0,
2015-02-23, 08:54:04,VALID,919.453,VALID,0,VALID,87.2424,VALID,139.566,VALID,21.5526,VALID,173,VALID,0,
2015-02-23, 08:55:04,VALID,919.429,VALID,0,VALID,86.2894,VALID,145.046,VALID,21.5737,VALID,159,VALID,0.111328,
2015-02-23, 08:56:04,VALID,919.455,VALID,0,VALID,86.9832,VALID,155.682,VALID,21.4941,VALID,153,VALID,0,
2015-02-23, 08:57:04,VALID,919.454,VALID,0,VALID,87.0289,VALID,168.79,VALID,21.5136,VALID,152,VALID,0,
2015-02-23, 08:58:04,VALID,919.435,VALID,0,VALID,86.4953,VALID,178.567,VALID,21.5542,VALID,149,VALID,0,
2015-02-23, 08:59:04,VALID,919.466,VALID,0,VALID,86.0684,VALID,185.873,VALID,21.5526,VALID,151,VALID,0,
2015-02-23, 09:00:04,VALID,919.456,VALID,0,VALID,86.8078,VALID,192.212,VALID,21.6111,VALID,152,VALID,0,
2015-02-23, 09:01:04,VALID,919.48,VALID,0,VALID,85.8473,VALID,202.527,VALID,21.6323,VALID,155,VALID,0,
2015-02-23, 09:02:04,VALID,919.453,VALID,0,VALID,86.137,VALID,299.653,VALID,21.6696,VALID,155,VALID,0,
2015-02-23, 09:03:04,VALID,919.478,VALID,0,VALID,85.9693,VALID,307.926,VALID,21.8062,VALID,155,VALID,0,
2015-02-23, 09:04:04,VALID,919.479,VALID,0,VALID,85.3594,VALID,315.662,VALID,22.0225,VALID,156,VALID,0,
2015-02-23, 09:05:04,VALID,919.486,VALID,0,VALID,83.3468,VALID,221.759,VALID,22.1574,VALID,156,VALID,0,
2015-02-23, 09:06:04,VALID,919.499,VALID,0,VALID,82.6073,VALID,230.998,VALID,22.294,VALID,156,VALID,0,
2015-02-23, 09:07:04,VALID,919.535,VALID,0,VALID,82.5921,VALID,185.443,VALID,22.4306,VALID,156,VALID,0,
2015-02-23, 09:08:04,VALID,919.54,VALID,0,VALID,80.8692,VALID,162.129,VALID,22.5477,VALID,157,VALID,0,
2015-02-23, 09:09:04,VALID,919.566,VALID,0,VALID,81.1741,VALID,154.393,VALID,22.6062,VALID,144,VALID,0,
2015-02-23, 09:10:04,VALID,919.577,VALID,0,VALID,81.8221,VALID,149.128,VALID,22.7038,VALID,143,VALID,0,
2015-02-23, 09:11:04,VALID,919.595,VALID,0,VALID,81.4333,VALID,152.352,VALID,22.8014,VALID,143,VALID,0,
2015-02-23, 09:12:04,VALID,919.603,VALID,0,VALID,81.5401,VALID,161.054,VALID,22.8014,VALID,143,VALID,0,
2015-02-23, 09:13:04,VALID,919.632,VALID,0,VALID,80.9683,VALID,168.575,VALID,22.8014,VALID,143,VALID,0,
2015-02-23, 09:14:04,VALID,919.66,VALID,0,VALID,81.2427,VALID,171.261,VALID,22.7818,VALID,141,VALID,0,
2015-02-23, 09:15:04,VALID,919.684,VALID,0,VALID,80.793,VALID,169.112,VALID,22.7428,VALID,142,VALID,0,
2015-02-23, 09:16:04,VALID,919.701,VALID,0,VALID,81.7001,VALID,163.74,VALID,22.8014,VALID,142,VALID,0,
2015-02-23, 09:17:04,VALID,919.751,VALID,0,VALID,81.662,VALID,155.575,VALID,22.8404,VALID,142,VALID,0,
2015-02-23, 09:18:04,VALID,919.748,VALID,0,VALID,81.9898,VALID,145.798,VALID,22.8777,VALID,131,VALID,0,
2015-02-23, 09:19:04,VALID,919.753,VALID,0,VALID,81.9212,VALID,136.88,VALID,22.8989,VALID,86,VALID,0,
2015-02-23, 09:20:04,VALID,919.767,VALID,0,VALID,80.4575,VALID,131.723,VALID,22.8989,VALID,72,VALID,0,
2015-02-23, 09:21:04,VALID,919.754,VALID,0,VALID,81.8907,VALID,132.26,VALID,22.8777,VALID,72,VALID,0,
2015-02-23, 09:22:04,VALID,919.767,VALID,0,VALID,80.145,VALID,136.665,VALID,22.8777,VALID,68,VALID,0,
2015-02-23, 09:23:04,VALID,919.748,VALID,0,VALID,81.6468,VALID,142.789,VALID,22.8014,VALID,68,VALID,0,
2015-02-23, 09:24:04,VALID,919.758,VALID,0,VALID,82.2643,VALID,149.343,VALID,22.8014,VALID,68,VALID,0,
2015-02-23, 09:25:04,VALID,919.769,VALID,0,VALID,81.9593,VALID,154.608,VALID,22.8209,VALID,71,VALID,0,
2015-02-23, 09:26:04,VALID,919.76,VALID,0,VALID,81.2732,VALID,156.972,VALID,22.7428,VALID,127,VALID,0,
2015-02-23, 09:27:04,VALID,919.73,VALID,0,VALID,81.8374,VALID,156.972,VALID,22.6452,VALID,124,VALID,0,
2015-02-23, 09:28:04,VALID,919.78,VALID,0,VALID,80.6939,VALID,155.36,VALID,22.5672,VALID,142,VALID,0,
2015-02-23, 09:29:04,VALID,919.779,VALID,0,VALID,81.7688,VALID,154.93,VALID,22.5281,VALID,150,VALID,0,
2015-02-23, 09:30:04,VALID,919.785,VALID,0,VALID,82.9809,VALID,156.434,VALID,22.5477,VALID,133,VALID,0.804688,
2015-02-23, 09:31:04,VALID,919.771,VALID,0,VALID,82.7522,VALID,159.765,VALID,22.4696,VALID,102,VALID,2.30469,
2015-02-23, 09:32:04,VALID,919.786,VALID,0,VALID,83.6136,VALID,165.352,VALID,22.4501,VALID,155,VALID,1.33125,
2015-02-23, 09:33:04,VALID,919.824,VALID,0,VALID,84.658,VALID,172.336,VALID,22.4484,VALID,132,VALID,0,
2015-02-23, 09:34:04,VALID,919.821,VALID,0,VALID,83.5069,VALID,178.137,VALID,22.4696,VALID,107,VALID,0,
2015-02-23, 09:35:04,VALID,919.794,VALID,0,VALID,83.9262,VALID,180.609,VALID,22.4501,VALID,128,VALID,0.0304688,
2015-02-23, 09:36:04,VALID,919.797,VALID,0,VALID,83.5374,VALID,179.319,VALID,22.4484,VALID,137,VALID,0.0121094,
2015-02-23, 09:37:04,VALID,919.814,VALID,0,VALID,84.0634,VALID,175.129,VALID,22.4679,VALID,128,VALID,0,
2015-02-23, 09:38:04,VALID,919.811,VALID,0,VALID,83.2934,VALID,165.567,VALID,22.4696,VALID,97,VALID,1.37812,
2015-02-23, 09:39:04,VALID,919.838,VALID,0,VALID,82.7979,VALID,153.211,VALID,22.3916,VALID,133,VALID,2.15859,
2015-02-23, 09:40:04,VALID,919.834,VALID,0,VALID,82.4015,VALID,143.112,VALID,22.333,VALID,120,VALID,0.852734,
2015-02-23, 09:41:04,VALID,919.839,VALID,0,VALID,83.4993,VALID,135.913,VALID,22.3135,VALID,127,VALID,1.73281,
2015-02-23, 09:42:04,VALID,919.858,VALID,0,VALID,83.545,VALID,134.194,VALID,22.2745,VALID,118,VALID,0.817969,
2015-02-23, 09:43:04,VALID,919.86,VALID,0,VALID,84.1473,VALID,134.946,VALID,22.3152,VALID,145,VALID,0,
2015-02-23, 09:44:04,VALID,919.864,VALID,0,VALID,84.4446,VALID,134.946,VALID,22.3135,VALID,129,VALID,0.440625,
2015-02-23, 09:45:04,VALID,919.874,VALID,0,VALID,84.1473,VALID,136.343,VALID,22.3933,VALID,133,VALID,0.0078125,
2015-02-23, 09:46:04,VALID,919.863,VALID,0,VALID,84.2845,VALID,138.062,VALID,22.4111,VALID,107,VALID,0,
2015-02-23, 09:47:04,VALID,919.88,VALID,0,VALID,83.2706,VALID,135.591,VALID,22.4323,VALID,143,VALID,0.358984,
2015-02-23, 09:48:04,VALID,919.897,VALID,0,VALID,83.1791,VALID,130.111,VALID,22.4128,VALID,85,VALID,1.32344,
2015-02-23, 09:49:04,VALID,919.899,VALID,0,VALID,83.85,VALID,124.417,VALID,22.4128,VALID,90,VALID,0.01875,
2015-02-23, 09:50:04,VALID,919.896,VALID,0,VALID,83.4535,VALID,117.756,VALID,22.3916,VALID,125,VALID,0.0078125,
2015-02-23, 09:51:04,VALID,919.895,VALID,0,VALID,83.7051,VALID,111.416,VALID,22.4111,VALID,128,VALID,0,
2015-02-23, 09:52:04,VALID,919.902,VALID,0,VALID,83.85,VALID,103.788,VALID,22.4306,VALID,128,VALID,0,
2015-02-23, 09:53:04,VALID,919.933,VALID,0,VALID,84.0863,VALID,94.3333,VALID,22.4908,VALID,128,VALID,0,
2015-02-23, 09:54:04,VALID,919.916,VALID,0,VALID,84.1396,VALID,85.4157,VALID,22.5477,VALID,120,VALID,0,
2015-02-23, 09:55:04,VALID,919.93,VALID,0,VALID,83.7966,VALID,78.5395,VALID,22.5477,VALID,87,VALID,0.283203,
2015-02-23, 09:56:04,VALID,919.932,VALID,0,VALID,82.8818,VALID,74.4567,VALID,22.5086,VALID,150,VALID,0.358594,
2015-02-23, 09:57:04,VALID,919.932,VALID,0,VALID,83.2553,VALID,72.8451,VALID,22.4696,VALID,114,VALID,0.794141,
2015-02-23, 09:58:04,VALID,919.95,VALID,0,VALID,82.836,VALID,73.2749,VALID,22.333,VALID,133,VALID,1.31289,
2015-02-23, 09:59:04,VALID,919.956,VALID,0,VALID,84.2006,VALID,76.713,VALID,22.2745,VALID,111,VALID,0.319141,
2015-02-23, 10:00:04,VALID,919.93,VALID,0,VALID,84.01,VALID,84.2339,VALID,22.1947,VALID,141,VALID,0.0632813,
2015-02-23, 10:01:04,VALID,919.919,VALID,0,VALID,84.597,VALID,95.5152,VALID,22.1574,VALID,125,VALID,1.55508,
2015-02-23, 10:02:04,VALID,919.917,VALID,0,VALID,85.0926,VALID,108.838,VALID,22.1379,VALID,125,VALID,0.645703,
2015-02-23, 10:03:04,VALID,919.897,VALID,0,VALID,85.367,VALID,122.59,VALID,22.1184,VALID,144,VALID,0.449219,
2015-02-23, 10:04:04,VALID,919.904,VALID,0,VALID,85.2984,VALID,135.591,VALID,22.1184,VALID,148,VALID,0.596484,
2015-02-23, 10:05:04,VALID,919.909,VALID,0,VALID,85.5271,VALID,146.872,VALID,22.1769,VALID,162,VALID,0.0992187,
2015-02-23, 10:06:04,VALID,919.888,VALID,0,VALID,85.5576,VALID,156.112,VALID,22.2354,VALID,176,VALID,0.00195313,
2015-02-23, 10:07:04,VALID,919.922,VALID,0,VALID,84.3836,VALID,164.922,VALID,22.2745,VALID,154,VALID,0.338281,
2015-02-23, 10:08:04,VALID,919.95,VALID,0,VALID,84.2997,VALID,175.881,VALID,22.3135,VALID,164,VALID,0.902344,
2015-02-23, 10:09:04,VALID,919.935,VALID,0,VALID,83.9109,VALID,189.311,VALID,22.3525,VALID,176,VALID,0.209375,
2015-02-23, 10:10:04,VALID,919.961,VALID,0,VALID,84.3379,VALID,202.956,VALID,22.4111,VALID,176,VALID,0,
2015-02-23, 10:11:04,VALID,919.994,VALID,0,VALID,84.1625,VALID,213.378,VALID,22.5086,VALID,171,VALID,0,
2015-02-23, 10:12:04,VALID,919.972,VALID,0,VALID,84.1473,VALID,218.643,VALID,22.6452,VALID,155,VALID,0.116406,
2015-02-23, 10:13:04,VALID,919.995,VALID,0,VALID,83.4078,VALID,225.949,VALID,22.624,VALID,140,VALID,0.0105469,
2015-02-23, 10:14:04,VALID,920.012,VALID,0,VALID,83.5069,VALID,235.618,VALID,22.7038,VALID,147,VALID,0.0078125,
2015-02-23, 10:15:04,VALID,919.999,VALID,0,VALID,83.3087,VALID,247.33,VALID,22.7233,VALID,144,VALID,0,
2015-02-23, 10:16:04,VALID,919.996,VALID,0,VALID,83.728,VALID,260.652,VALID,22.8209,VALID,135,VALID,0,
2015-02-23, 10:17:04,VALID,920.004,VALID,0,VALID,83.4993,VALID,274.727,VALID,22.8599,VALID,134,VALID,0.133594,
2015-02-23, 10:18:04,VALID,919.981,VALID,0,VALID,82.5311,VALID,288.157,VALID,22.8989,VALID,166,VALID,0.735547,
2015-02-23, 10:19:04,VALID,919.995,VALID,0,VALID,82.3024,VALID,300.405,VALID,22.9362,VALID,159,VALID,0.539453,
2015-02-23, 10:20:04,VALID,920.007,VALID,0,VALID,81.7535,VALID,313.728,VALID,23.016,VALID,139,VALID,0.258203,
2015-02-23, 10:21:04,VALID,920.008,VALID,0,VALID,82.3405,VALID,326.406,VALID,23.1119,VALID,131,VALID,0.0441406,
2015-02-23, 10:22:04,VALID,919.999,VALID,0,VALID,81.9975,VALID,333.175,VALID,23.2094,VALID,136,VALID,0.00078125,
2015-02-23, 10:23:04,VALID,920.046,VALID,0,VALID,82.493,VALID,328.662,VALID,23.229,VALID,162,VALID,0.0703125,
2015-02-23, 10:24:04,VALID,920.051,VALID,0,VALID,80.3279,VALID,324.687,VALID,23.2094,VALID,141,VALID,0.609766,
2015-02-23, 10:25:04,VALID,920.067,VALID,0,VALID,81.6315,VALID,312.976,VALID,23.229,VALID,122,VALID,0.26875,
2015-02-23, 10:26:04,VALID,920.061,VALID,0,VALID,79.4055,VALID,303.844,VALID,23.2485,VALID,126,VALID,0.377344,
2015-02-23, 10:27:04,VALID,920.057,VALID,0,VALID,80.6024,VALID,298.364,VALID,23.1509,VALID,125,VALID,0.096875,
2015-02-23, 10:28:04,VALID,920.078,VALID,0,VALID,82.1576,VALID,296.86,VALID,23.1899,VALID,108,VALID,0,
2015-02-23, 10:29:04,VALID,920.075,VALID,0,VALID,81.8831,VALID,299.331,VALID,23.229,VALID,82,VALID,1.0543,
2015-02-23, 10:30:04,VALID,920.072,VALID,0,VALID,79.6266,VALID,295.033,VALID,23.2875,VALID,144,VALID,0.902344,
2015-02-23, 10:31:04,VALID,920.091,VALID,0,VALID,81.014,VALID,289.876,VALID,23.2094,VALID,132,VALID,1.76602,
2015-02-23, 10:32:04,VALID,920.065,VALID,0,VALID,80.427,VALID,285.579,VALID,23.0711,VALID,135,VALID,1.75195,
2015-02-23, 10:33:04,VALID,920.075,VALID,0,VALID,81.0903,VALID,281.173,VALID,23.0533,VALID,122,VALID,1.71406,
2015-02-23, 10:34:04,VALID,920.069,VALID,0,VALID,81.5782,VALID,272.471,VALID,23.0338,VALID,63,VALID,0.671094,
2015-02-23, 10:35:04,VALID,920.074,VALID,0,VALID,81.9822,VALID,262.909,VALID,23.1119,VALID,103,VALID,0.446484,
2015-02-23, 10:36:04,VALID,920.056,VALID,0,VALID,80.7701,VALID,254.85,VALID,23.1687,VALID,110,VALID,1.00039,
2015-02-23, 10:37:04,VALID,920.055,VALID,0,VALID,80.9073,VALID,245.718,VALID,23.1509,VALID,104,VALID,1.76875,
2015-02-23, 10:38:04,VALID,920.047,VALID,0,VALID,80.9988,VALID,235.296,VALID,23.0924,VALID,97,VALID,1.11992,
2015-02-23, 10:39:04,VALID,920.074,VALID,0,VALID,81.8755,VALID,221.544,VALID,23.1331,VALID,129,VALID,0.470703,
2015-02-23, 10:40:04,VALID,920.074,VALID,0,VALID,80.0535,VALID,205.965,VALID,23.1314,VALID,143,VALID,0.00195313,
2015-02-23, 10:41:04,VALID,920.085,VALID,0,VALID,80.9149,VALID,193.824,VALID,23.2502,VALID,143,VALID,0,
2015-02-23, 10:42:04,VALID,920.04,VALID,0,VALID,79.9163,VALID,188.774,VALID,23.3088,VALID,143,VALID,0,
2015-02-23, 10:43:04,VALID,920.064,VALID,0,VALID,80.1602,VALID,190.923,VALID,23.3461,VALID,169,VALID,0,
2015-02-23, 10:44:04,VALID,920.061,VALID,0,VALID,79.2073,VALID,200.055,VALID,23.2893,VALID,167,VALID,0.136719,
2015-02-23, 10:45:04,VALID,920.023,VALID,0,VALID,80.3661,VALID,213.486,VALID,23.2698,VALID,168,VALID,0,
2015-02-23, 10:46:04,VALID,920.03,VALID,0,VALID,79.9544,VALID,225.089,VALID,23.3283,VALID,160,VALID,0.0015625,
2015-02-23, 10:47:04,VALID,920.022,VALID,0,VALID,80.1983,VALID,232.395,VALID,23.3283,VALID,143,VALID,0.00117188,
2015-02-23, 10:48:04,VALID,919.994,VALID,0,VALID,80.7167,VALID,234.222,VALID,23.3283,VALID,135,VALID,0,
2015-02-23, 10:49:04,VALID,920.005,VALID,0,VALID,80.6405,VALID,231.858,VALID,23.3674,VALID,127,VALID,0.502344,
2015-02-23, 10:50:04,VALID,920.021,VALID,0,VALID,79.5046,VALID,226.271,VALID,23.3088,VALID,147,VALID,0.293359,
2015-02-23, 10:51:04,VALID,920.036,VALID,0,VALID,79.7943,VALID,219.073,VALID,23.2893,VALID,165,VALID,0,
2015-02-23, 10:52:04,VALID,920.055,VALID,0,VALID,80.549,VALID,212.733,VALID,23.2875,VALID,149,VALID,0.028125,
2015-02-23, 10:53:04,VALID,920.008,VALID,0,VALID,79.7333,VALID,212.733,VALID,23.3283,VALID,130,VALID,0.155469,
2015-02-23, 10:54:04,VALID,920.031,VALID,0,VALID,79.6723,VALID,216.924,VALID,23.3674,VALID,185,VALID,0.435547,
2015-02-23, 10:55:04,VALID,920.02,VALID,0,VALID,79.9315,VALID,220.899,VALID,23.4046,VALID,185,VALID,0,
2015-02-23, 10:56:04,VALID,920.038,VALID,0,VALID,79.6495,VALID,223.692,VALID,23.5235,VALID,185,VALID,0,
2015-02-23, 10:57:04,VALID,920.023,VALID,0,VALID,79.7486,VALID,224.445,VALID,23.5608,VALID,113,VALID,0,
2015-02-23, 10:58:04,VALID,920.029,VALID,0,VALID,77.7131,VALID,226.056,VALID,23.543,VALID,130,VALID,0.298438,
2015-02-23, 10:59:04,VALID,920.027,VALID,0,VALID,78.5822,VALID,225.841,VALID,23.504,VALID,165,VALID,0,
2015-02-23, 11:00:04,VALID,920.023,VALID,0,VALID,79.9696,VALID,225.841,VALID,23.5235,VALID,157,VALID,0,
2015-02-23, 11:01:04,VALID,920.009,VALID,0,VALID,78.1553,VALID,227.56,VALID,23.4437,VALID,124,VALID,0,
2015-02-23, 11:02:04,VALID,919.992,VALID,0,VALID,79.2912,VALID,229.924,VALID,23.3656,VALID,136,VALID,1.03984,
2015-02-23, 11:03:04,VALID,919.954,VALID,0,VALID,79.962,VALID,232.932,VALID,23.3283,VALID,130,VALID,1.14805,
2015-02-23, 11:04:04,VALID,919.98,VALID,0,VALID,79.9315,VALID,236.693,VALID,23.3478,VALID,151,VALID,0.191406,
2015-02-23, 11:05:04,VALID,919.907,VALID,0,VALID,80.61,VALID,242.387,VALID,23.2875,VALID,148,VALID,0.627344,
2015-02-23, 11:06:04,VALID,919.923,VALID,0,VALID,79.2835,VALID,249.586,VALID,23.3088,VALID,162,VALID,0.7,
2015-02-23, 11:07:04,VALID,919.868,VALID,0,VALID,79.5275,VALID,257.644,VALID,23.2875,VALID,134,VALID,0.305469,
2015-02-23, 11:08:04,VALID,919.848,VALID,0,VALID,79.1844,VALID,265.272,VALID,23.2875,VALID,107,VALID,0.830078,
2015-02-23, 11:09:04,VALID,919.804,VALID,0,VALID,79.3979,VALID,273.438,VALID,23.307,VALID,135,VALID,1.05547,
2015-02-23, 11:10:04,VALID,919.764,VALID,0,VALID,79.1082,VALID,281.818,VALID,23.2485,VALID,142,VALID,1.69062,
2015-02-23, 11:11:04,VALID,919.75,VALID,0,VALID,80.1221,VALID,289.984,VALID,23.2094,VALID,139,VALID,0.405078,
2015-02-23, 11:12:04,VALID,919.758,VALID,0,VALID,80.1755,VALID,297.505,VALID,23.268,VALID,145,VALID,0.359766,
2015-02-23, 11:13:04,VALID,919.757,VALID,0,VALID,78.14,VALID,302.017,VALID,23.307,VALID,140,VALID,1.73672,